Weather History for Waukegan, IL

Change the Weather History Date:

Wednesday, October 5, 2011

  Actual Average Record
Temperature  
Mean Temperature 62 °F -  
Max Temperature 77 °F 63 °F 83 °F (2005)
Min Temperature 48 °F 45 °F 26 °F (2004)
Degree Days  
Heating Degree Days 4 11  
Month to date heating degree days 53  
Since 1 July heating degree days 219  
Cooling Degree Days 0 1  
Month to date cooling degree days 5  
Year to date cooling degree days 562  
Growing Degree Days 12 (Base 50)    
Moisture  
Dew Point 50 °F    
Average Humidity 77    
Maximum Humidity 97    
Minimum Humidity 41    
Precipitation  
Precipitation 0.01 in 0.09 in 0.34 in (2000)
Month to date precipitation 0.61  
Year to date precipitation 28.52  
Sea Level Pressure  
Sea Level Pressure 30.22 in    
Wind  
Wind Speed 1 mph (SSW)    
Max Wind Speed 5 mph    
Max Gust Speed -    
Visibility 9 miles    
Events      
T = Trace of Precipitation, MM = Missing Value Source: NWS Daily Summary

Daily Weather History Graph

Daily Weather History Graph

Search for Another Location

Airport:

Trip Planner

Search our weather history database for the weather conditions in past years. The results will help you decide how hot, cold, wet, or windy it might be!

Date:

Astronomy

Oct. 05, 2011 Rise Set
Actual Time 6:52 AM CDT 6:26 PM CDT
Civil Twilight 6:24 AM CDT 6:54 PM CDT
Nautical Twilight 5:52 AM CDT 7:26 PM CDT
Astronomical Twilight 5:19 AM CDT 7:59 PM CDT
Moon 3:13 PM CDT (10/5) 12:31 AM CDT (10/5)
Length of Visible Light 12h 29m
Length of Day
11h 33m
Waxing Gibbous, 66% of the Moon is Illuminated
Oct 5
Waxing Gibbous
Oct 11
Full
Oct 19
Last Quarter
Oct 26
New
Nov 2
First Quarter

Hourly Weather History & Observations

Time (CDT) Temp. Dew Point Humidity Pressure Visibility Wind Dir Wind Speed Gust Speed Precip Events Conditions
12:52 AM 53.1 °F 48.9 °F 86% 30.21 in 10.0 mi SW 3.5 mph - N/A   Clear
1:52 AM 48.9 °F 46.9 °F 93% 30.22 in 6.0 mi Calm Calm - N/A   Clear
2:52 AM 48.0 °F 46.0 °F 93% 30.22 in 5.0 mi Calm Calm - N/A   Clear
3:52 AM 50.0 °F 48.9 °F 96% 30.21 in 9.0 mi Calm Calm - N/A   Clear
4:52 AM 48.9 °F 48.0 °F 97% 30.22 in 6.0 mi Calm Calm - 0.01 in   Clear
5:52 AM 48.0 °F 46.0 °F 93% 30.23 in 8.0 mi Calm Calm - N/A   Clear
6:52 AM 48.9 °F 46.0 °F 90% 30.25 in 10.0 mi Calm Calm - N/A   Clear
7:52 AM 54.0 °F 48.0 °F 80% 30.25 in 10.0 mi Calm Calm - N/A   Clear
8:52 AM 61.0 °F 48.9 °F 64% 30.26 in 10.0 mi Calm Calm - N/A   Clear
9:52 AM 68.0 °F 52.0 °F 56% 30.26 in 10.0 mi WSW 3.5 mph - N/A   Clear
10:52 AM 72.0 °F 52.0 °F 49% 30.25 in 10.0 mi South 3.5 mph - N/A   Clear
11:52 AM 75.0 °F 50.0 °F 41% 30.24 in 10.0 mi Calm Calm - N/A   Clear
12:52 PM 75.9 °F 55.9 °F 50% 30.22 in - North - - N/A   Clear
1:52 PM 73.0 °F 55.0 °F 53% 30.20 in - North - - N/A   Clear
4:52 PM 68.0 °F 50.0 °F 52% 30.19 in 10.0 mi ESE 4.6 mph - N/A   Clear
6:52 PM 57.0 °F 52.0 °F 83% 30.19 in 10.0 mi Calm Calm - N/A   Clear
7:52 PM 55.9 °F 51.1 °F 84% 30.19 in 10.0 mi Calm Calm - N/A   Clear
8:52 PM 54.0 °F 51.1 °F 90% 30.20 in 10.0 mi Calm Calm - N/A   Clear
9:52 PM 53.1 °F 50.0 °F 89% 30.20 in 10.0 mi Calm Calm - N/A   Clear
10:52 PM 53.1 °F 51.1 °F 93% 30.20 in 10.0 mi Calm Calm - N/A   Clear